• Join FlightAware (Why Join?)
  • Login
  • US Flag 
12:23PM EDT


 

Airport Tracker/Info


-or-


 

Live Flight TrackerFlight Track Log ✈ N52712 ✈ 01-Jul-2013 ✈ KBED - KBED

Flight Track Log - Related Links

Times and Time Zones

All times are in EDT time to prevent confusion due to time zone crossing. See the N52712 flight status page for this flight to view local times or setup timezone preferences in your user account.

Time Position Orientation Groundspeed Altitude Reporting Facility
EDT Latitude Longitude Course Direction KTS MPH feet Rate Location/Type
09:04AM 42.4667 -71.2667 180° South 72 83 800  Level KA90
09:06AM 42.4333 -71.2667 180° South 66 76 2,000 720 Climbing KA90
09:07AM 42.4167 -71.2833 216° Southwest 70 81 2,700 540 Climbing KA90
09:08AM 42.4000 -71.3000 216° Southwest 70 81 3,100 180 Climbing KA90
09:09AM 42.3833 -71.3000 180° South 100 115 3,100 -60 Level KA90
09:10AM 42.3500 -71.3167 200° South 100 115 3,000 -60 Descending KA90
09:11AM 42.3167 -71.3167 180° South 95 109 3,000  Level KA90
09:12AM 42.3000 -71.3333 216° Southwest 95 109 3,000  Level KA90
09:13AM 42.2667 -71.3333 180° South 98 113 3,000  Level KA90
09:14AM 42.2500 -71.3333 180° South 93 107 3,100  Climbing KA90
09:15AM 42.2167 -71.3167 160° South 94 108 3,100 -120 Level KA90
09:16AM 42.2000 -71.3000 143° Southeast 101 116 2,900  Descending KA90
09:17AM 42.1667 -71.2833 160° South 100 115 3,100 -60 Climbing KA90
09:18AM 42.1500 -71.2667 143° Southeast 101 116 2,800 -480 Descending KA90
09:19AM 42.1167 -71.2500 160° South 98 113 2,300 -420 Descending KA90
09:20AM 42.1000 -71.2500 180° South 87 100 2,100 -120 Descending KA90
09:21AM 42.0833 -71.2333 143° Southeast 98 113 2,100 -60 Level KA90
09:22AM 42.0667 -71.2167 143° Southeast 105 121 2,000  Descending KA90
09:23AM 42.0333 -71.1833 143° Southeast 110 127 2,100  Climbing KA90
09:24AM 42.0333 -71.1500 90° East 113 130 2,100 -60 Level KA90
09:25AM 42.0500 -71.0833 71° East 120 138 2,000  Descending KA90
09:26AM 42.0667 -71.0833 360° North 124 143 2,100 -60 Climbing KA90
09:27AM 42.1000 -71.1000 340° North 115 132 1,900 -300 Descending KA90
09:28AM 42.1167 -71.1333 304° West 107 123 1,500 -420 Descending KA90
09:29AM 42.1500 -71.1500 340° North 103 119 1,200 -480 Descending KA90
09:30AM 42.1667 -71.1667 323° Northwest 104 120 700 60 Descending KA90
09:31AM 42.2000 -71.1667 360° North 96 110 1,400 660 Climbing KA90
09:32AM 42.2167 -71.2000 304° West 87 100 2,200 720 Climbing KA90
09:33AM 42.2333 -71.2000 360° North 85 98 2,700 480 Climbing KA90
09:34AM 42.2333 -71.2333 270° West 85 98 3,100 180 Climbing KA90
09:35AM 42.2333 -71.2833 270° West 106 122 3,100 -60 Level KA90
09:36AM 42.2500 -71.3167 304° West 104 120 3,000 -60 Descending KA90
09:37AM 42.2500 -71.3500 270° West 100 115 3,000  Level KA90